Terug naar catalogus

STARLINK-3156

ActiefCommunicatieVLEO
NORAD 49458·PAYLOAD·🇺🇸 United States

Gelanceerd Nov 13, 2021 vanaf Cape Canaveral Space Force Station

Loading…

Volgende Passages (komende 24 uur)

TLE

VersSource: CelesTrak SupGP

Epoch: Sep 14, 2026, 21:48 UTC

1 49458C 21104BC  26257.90881944  .00042810  00000+0  12994-2 0  2571
2 49458  53.1576  77.9427 0001226  83.4172 200.4127 15.33519072    14

Volg STARLINK-3156 in realtime met AllMySat

Download on the App Store